Probability
48 48 48 48 58 61 61 68 58 61 52 42 39 42 42 42 42 45 45 48 45 48 48 39 42 39 32 32 29 23 23 26 19 13 13 13 13 13 19 16 16 16 10
48 42 42 45 55 55 58 55 55 48 45 42 45 39 42 42 42 42 42 39 39 45 35 39 39 35 35 35 29 26 23 23 16 16 10 10 10 13 13 16 13 10 6
39 39 45 45 48 52 52 48 48 61 48 45 48 39 42 42 42 42 42 42 39 35 42 39 42 39 39 35 32 26 23 19 19 16 13 10 10 10 10 10 3 6 6
35 39 42 45 42 52 45 45 45 52 55 45 39 39 39 42 39 39 39 32 35 35 32 32 29 32 26 32 29 23 23 23 16 19 16 13 6 10 3 6 10 10 6
39 39 45 45 42 35 35 35 42 48 52 42 45 42 39 39 39 35 35 35 32 32 29 29 29 32 29 32 23 23 16 16 13 13 13 13 13 10 6 3 6 6 13
35 39 29 32 26 29 29 32 35 42 45 45 39 39 39 35 29 29 29 26 29 29 29 26 29 26 26 23 19 13 10 6 6 10 6 10 10 6 3 0 0 3 6
26 39 39 29 32 29 29 29 35 39 32 32 35 39 39 32 29 29 29 26 26 26 26 19 26 16 13 16 10 10 10 6 6 6 6 3 3 3 6 3 3 3 3
26 26 29 23 29 29 29 32 32 29 29 23 29 35 29 26 23 26 23 23 19 19 19 16 13 13 13 10 10 10 10 6 10 6 6 6 6 6 6 0 0 0 0
29 26 29 26 26 26 26 32 29 26 26 29 26 26 23 23 19 19 19 16 16 16 13 10 13 10 10 10 10 10 6 6 6 6 6 6 10 6 6 6 10 3 0
26 23 23 23 19 19 19 23 26 26 26 19 13 10 13 19 19 19 19 16 16 13 13 13 13 13 10 10 6 6 6 6 6 6 6 10 6 6 6 6 6 6 3
26 13 23 19 13 16 19 19 19 16 16 10 10 6 10 13 19 19 19 13 16 13 13 13 13 10 13 10 6 6 6 6 10 10 6 6 10 10 10 6 3 3 3
16 13 19 13 10 10 16 13 10 16 16 10 10 13 10 13 16 13 10 10 16 13 13 13 13 10 10 10 10 10 10 10 6 6 6 6 6 10 6 3 3 3 3
16 13 16 10 10 10 13 6 10 13 13 6 10 13 13 13 10 13 10 10 10 10 10 10 13 10 10 6 6 6 6 6 6 3 3 10 6 6 3 3 3 3 3
16 19 16 6 3 3 6 10 16 16 10 6 6 10 10 10 10 10 10 10 10 10 10 10 6 6 6 3 3 3 3 3 3 3 3 3 6 3 3 3 3 3 0
13 16 10 10 10 3 6 3 13 13 13 6 10 10 10 10 10 6 10 10 10 10 10 10 6 6 6 6 6 3 3 3 3 3 3 3 3 3 3 3 6 3 0
10 6 0 6 6 6 3 3 10 13 13 13 10 10 6 6 6 6 6 10 10 10 10 6 6 6 6 3 3 3 3 3 3 3 3 0 0 0 0 0 0 0 0
6 0 0 3 6 6 6 10 6 3 13 10 10 10 6 6 6 6 6 10 10 10 16 10 6 10 6 0 3 3 3 3 3 3 0 0 0 0 3 0 0 0 0
10 3 6 10 10 10 10 10 6 3 6 13 6 6 3 3 6 6 10 10 13 10 13 10 10 10 3 0 0 0 3 3 3 0 0 0 0 0 0 0 0 0 0
19 16 10 13 16 16 10 13 13 10 6 10 6 6 3 6 6 6 6 10 13 13 13 10 10 6 0 0 0 0 3 3 0 0 0 3 3 0 0 0 0 0 0
19 23 13 6 23 16 23 19 16 10 6 6 6 6 6 6 10 10 13 19 16 13 13 10 6 6 3 0 0 0 3 0 0 0 0 0 0 0 0 0 0 0 0
16 13 10 13 26 29 26 19 19 13 10 6 10 10 6 10 6 10 16 19 16 10 10 10 6 10 3 0 0 0 0 0 0 0 0 0 0 0 0 0 0 0 0
6 6 10 16 19 23 26 16 16 16 13 6 10 13 13 6 6 13 13 13 16 10 10 10 6 6 6 0 0 0 0 0 0 0 0 0 0 0 0 0 0 0 0
6 3 13 16 16 26 26 29 29 26 16 19 16 23 16 19 19 19 13 16 13 6 6 6 6 6 0 0 0 0 0 0 0 0 0 0 0 0 0 0 0 0 0
10 10 10 13 23 23 23 29 29 29 26 16 26 29 26 19 19 19 13 10 13 13 10 6 3 0 0 0 0 0 0 0 0 0 0 0 0 0 0 0 0 0 0
13 16 16 10 16 19 23 26 26 32 29 26 23 23 19 13 16 10 10 10 10 3 3 3 3 0 0 0 0 0 0 0 0 0 0 0 0 0 0 0 0 0 0
16 16 19 13 13 13 13 16 19 23 32 29 29 13 10 16 10 6 3 0 0 0 0 0 0 0 0 0 0 0 0 0 0 0 0 0 0 0 0 0 0 0 0
Height
5827 5825 5825 5824 5823 5824 5825 5825 5825 5825 5825 5825 5824 5824 5824 5823 5823 5823 5822 5821 5821 5820 5819 5818 5816 5816 5814 5813 5812 5811 5810 5808 5807 5805 5804 5802 5800 5799 5798 5797 5795 5794 5792
5823 5822 5821 5821 5820 5819 5820 5820 5821 5820 5820 5820 5820 5820 5819 5819 5818 5818 5818 5817 5817 5816 5815 5814 5813 5812 5810 5809 5808 5807 5806 5804 5802 5801 5799 5798 5797 5794 5792 5791 5790 5788 5786
5819 5817 5816 5816 5815 5814 5815 5815 5816 5816 5816 5816 5815 5815 5815 5815 5814 5814 5814 5813 5813 5812 5811 5810 5809 5808 5806 5805 5804 5803 5801 5800 5798 5796 5794 5792 5791 5789 5787 5785 5784 5782 5780
5812 5811 5810 5811 5811 5810 5810 5810 5811 5811 5811 5811 5811 5811 5811 5810 5810 5810 5809 5809 5808 5808 5807 5805 5804 5803 5802 5801 5800 5798 5796 5795 5793 5791 5789 5787 5784 5783 5782 5780 5777 5775 5774
5809 5808 5806 5806 5806 5805 5805 5806 5806 5807 5807 5807 5807 5807 5807 5806 5806 5805 5805 5804 5803 5803 5802 5801 5800 5799 5797 5796 5795 5793 5791 5790 5788 5785 5783 5781 5779 5777 5775 5774 5772 5770 5767
5804 5803 5802 5801 5801 5801 5801 5801 5802 5802 5802 5802 5802 5802 5802 5802 5802 5801 5801 5800 5799 5798 5797 5797 5795 5794 5793 5791 5790 5788 5786 5784 5782 5780 5778 5775 5773 5771 5769 5767 5765 5763 5761
5800 5799 5797 5796 5797 5796 5796 5797 5797 5797 5796 5797 5797 5797 5797 5798 5797 5797 5796 5795 5795 5794 5793 5792 5791 5790 5788 5786 5785 5783 5781 5779 5776 5774 5772 5770 5768 5765 5763 5760 5758 5756 5754
5795 5794 5793 5792 5792 5792 5792 5792 5793 5792 5792 5791 5791 5792 5792 5793 5793 5792 5791 5790 5789 5789 5788 5787 5786 5784 5783 5781 5779 5777 5775 5773 5771 5769 5766 5764 5762 5759 5757 5754 5752 5750 5748
5791 5790 5789 5788 5788 5788 5787 5788 5788 5788 5788 5787 5787 5788 5788 5788 5788 5787 5786 5785 5784 5784 5783 5782 5780 5779 5777 5776 5774 5772 5769 5767 5765 5763 5761 5759 5756 5753 5751 5748 5745 5743 5741
5788 5786 5785 5785 5784 5784 5784 5784 5784 5785 5784 5784 5784 5784 5784 5784 5783 5782 5781 5780 5779 5778 5777 5776 5775 5773 5772 5770 5768 5766 5764 5762 5760 5758 5756 5753 5750 5748 5745 5742 5738 5735 5733
5785 5783 5781 5781 5781 5780 5780 5781 5781 5781 5780 5780 5780 5780 5780 5780 5779 5778 5777 5776 5775 5774 5772 5771 5770 5769 5767 5765 5763 5761 5759 5757 5754 5752 5749 5747 5744 5741 5738 5735 5732 5728 5725
5781 5779 5778 5777 5776 5776 5776 5777 5777 5777 5777 5777 5777 5776 5776 5776 5775 5774 5773 5772 5770 5769 5768 5767 5765 5764 5762 5760 5758 5756 5754 5751 5749 5746 5743 5741 5738 5734 5731 5728 5725 5722 5718
5778 5777 5775 5774 5773 5772 5773 5773 5773 5774 5773 5773 5773 5773 5772 5772 5771 5770 5769 5768 5767 5765 5764 5763 5761 5759 5757 5755 5753 5751 5749 5746 5743 5741 5738 5735 5732 5728 5725 5721 5718 5715 5711
5775 5774 5773 5772 5770 5769 5769 5770 5770 5770 5770 5770 5770 5769 5769 5769 5768 5767 5765 5764 5763 5762 5760 5759 5757 5755 5753 5751 5749 5746 5744 5741 5738 5735 5732 5729 5726 5722 5719 5715 5711 5708 5705
5772 5771 5770 5768 5767 5766 5766 5766 5767 5767 5767 5767 5767 5766 5766 5765 5764 5763 5762 5760 5759 5758 5756 5754 5753 5750 5748 5746 5744 5742 5739 5736 5733 5730 5727 5724 5720 5716 5712 5708 5705 5701 5697
5770 5768 5767 5765 5764 5764 5763 5763 5764 5764 5764 5764 5763 5763 5762 5762 5761 5760 5759 5757 5756 5755 5753 5751 5749 5747 5744 5742 5739 5737 5734 5731 5728 5725 5722 5718 5714 5710 5706 5702 5698 5694 5690
5768 5766 5764 5763 5762 5761 5760 5760 5761 5761 5761 5761 5761 5760 5760 5759 5758 5757 5756 5755 5754 5752 5750 5748 5746 5743 5741 5738 5736 5733 5730 5727 5724 5720 5717 5713 5708 5704 5700 5696 5691 5687 5683
5765 5764 5762 5760 5759 5759 5758 5758 5758 5759 5759 5759 5758 5758 5757 5757 5756 5755 5754 5753 5751 5750 5748 5745 5743 5740 5738 5735 5732 5729 5726 5722 5719 5715 5711 5707 5703 5699 5694 5690 5685 5681 5677
5764 5762 5761 5760 5759 5758 5757 5757 5757 5757 5757 5757 5756 5756 5755 5754 5754 5753 5752 5751 5749 5747 5745 5743 5740 5738 5735 5732 5728 5725 5722 5718 5714 5711 5706 5702 5697 5693 5688 5684 5680 5676 5672
5763 5762 5760 5759 5758 5757 5756 5756 5756 5756 5756 5755 5755 5754 5753 5753 5752 5752 5751 5749 5747 5745 5743 5740 5738 5735 5732 5728 5725 5721 5718 5714 5711 5706 5702 5697 5692 5687 5683 5679 5675 5671 5667
5763 5762 5760 5759 5758 5757 5756 5756 5756 5755 5755 5755 5754 5753 5753 5752 5751 5750 5749 5747 5745 5743 5740 5738 5735 5732 5729 5725 5722 5718 5714 5710 5706 5702 5697 5692 5687 5682 5678 5673 5669 5665 5660
5763 5761 5760 5758 5757 5756 5756 5756 5755 5755 5755 5754 5753 5753 5752 5751 5750 5749 5748 5746 5744 5741 5739 5736 5733 5730 5726 5723 5719 5715 5711 5706 5702 5697 5692 5687 5682 5677 5673 5668 5664 5659 5654
5763 5762 5760 5759 5758 5757 5757 5756 5756 5755 5754 5754 5753 5752 5751 5750 5749 5748 5746 5744 5742 5739 5737 5734 5731 5727 5724 5720 5716 5712 5708 5703 5699 5693 5688 5683 5678 5673 5669 5664 5659 5654 5648
5763 5762 5761 5760 5759 5758 5757 5756 5756 5755 5754 5754 5753 5752 5751 5749 5748 5747 5745 5742 5740 5738 5735 5732 5728 5725 5722 5718 5714 5710 5705 5700 5695 5690 5685 5679 5674 5669 5664 5659 5654 5648 5642
5764 5762 5761 5760 5759 5758 5758 5757 5756 5755 5755 5754 5753 5751 5750 5749 5747 5745 5743 5741 5739 5736 5733 5730 5726 5723 5719 5715 5711 5706 5702 5697 5692 5686 5681 5676 5671 5665 5660 5654 5648 5643 5637
5764 5763 5761 5760 5759 5759 5758 5757 5756 5756 5755 5754 5752 5751 5750 5748 5746 5744 5742 5740 5738 5735 5732 5728 5724 5720 5717 5712 5708 5703 5699 5693 5688 5683 5678 5672 5666 5661 5655 5649 5643 5637 5631
Wind_Speed
20 21 22 22 21 20 20 21 21 20 20 20 21 21 21 21 21 20 21 21 21 21 21 20 20 20 19 19 19 20 20 20 20 20 20 20 21 20 21 21 21 22 23
20 19 20 21 22 22 21 21 20 20 21 20 20 21 21 21 21 21 21 20 21 21 20 19 20 19 19 19 19 19 20 20 20 20 20 21 20 21 21 21 22 23 23
20 20 20 20 20 20 21 21 20 20 20 20 20 21 19 19 19 19 20 20 20 20 20 19 20 20 20 20 19 20 20 20 20 21 21 21 21 21 22 22 23 23 24
20 19 19 19 19 20 20 20 20 20 20 19 19 19 18 18 19 20 20 20 21 21 20 21 22 21 20 20 20 21 21 21 21 22 22 22 22 22 22 23 23 24 24
20 19 20 19 19 20 20 19 20 20 20 19 19 19 19 19 19 20 20 21 22 22 21 22 21 20 20 19 20 21 21 22 23 23 23 23 23 23 23 23 23 24 24
22 21 21 20 20 19 20 19 19 19 20 20 20 20 20 19 20 20 21 21 21 22 22 22 21 21 20 20 20 21 22 22 23 23 23 23 23 24 23 24 24 25 25
21 22 21 20 20 18 19 18 18 20 20 20 20 20 20 20 20 21 21 21 21 21 22 21 20 21 21 21 22 22 23 23 23 23 23 23 23 24 24 24 24 24 25
19 20 19 18 17 17 18 18 18 19 19 19 19 19 19 20 21 20 20 20 21 21 22 21 21 21 22 22 23 23 23 23 23 23 23 23 24 25 24 24 24 24 24
19 19 18 18 17 17 17 17 18 18 17 17 17 18 19 19 18 19 19 20 21 21 21 21 21 22 22 22 23 23 23 23 23 23 23 24 24 25 25 25 26 25 25
19 19 18 18 18 17 16 16 16 17 17 17 17 17 18 18 18 19 19 20 20 20 20 20 20 21 22 22 23 22 22 22 22 22 23 24 25 25 25 25 25 26 26
18 17 16 16 17 17 16 17 17 17 17 17 17 17 17 17 18 18 18 19 19 19 18 18 19 19 21 22 21 21 21 22 22 23 23 24 24 25 26 26 26 27 27
16 16 16 16 16 16 16 16 16 17 17 16 16 16 16 16 17 17 17 17 17 17 17 18 18 19 20 20 20 20 21 22 22 23 24 24 24 25 26 26 27 27 27
15 15 15 15 15 15 15 15 15 15 15 16 16 15 15 16 17 17 16 16 16 16 17 17 18 18 19 20 20 20 21 22 23 24 24 25 25 25 26 27 27 27 27
16 14 13 13 13 14 14 14 14 14 14 14 14 15 15 15 16 16 15 15 15 16 17 17 17 18 19 19 20 20 21 22 23 23 24 24 25 25 26 27 27 27 27
14 13 13 13 14 14 14 14 14 13 13 13 13 14 14 15 14 14 14 14 14 14 16 17 17 18 18 19 20 21 21 22 22 23 24 24 25 26 27 28 28 27 27
14 14 14 14 14 13 13 13 12 12 12 12 13 13 14 14 13 12 12 13 13 14 15 16 16 18 18 19 20 20 21 22 23 23 23 24 25 26 27 28 27 27 27
13 13 13 12 11 11 10 10 11 12 11 11 12 12 12 12 12 12 12 12 12 13 14 15 16 17 18 18 19 19 20 21 22 22 23 24 26 26 26 26 26 27 27
13 12 11 10 9 9 9 8 9 9 9 10 10 10 11 11 11 10 10 11 12 13 14 15 16 17 17 18 19 20 20 21 22 23 24 25 25 26 26 26 26 26 26
12 10 9 8 8 7 7 7 7 7 7 8 8 9 10 9 8 8 9 11 12 13 14 14 16 16 18 19 20 20 21 22 23 24 25 26 27 27 26 26 25 25 25
10 9 8 7 7 6 6 5 5 6 6 7 7 8 8 7 7 8 9 10 12 13 14 15 16 16 18 19 20 20 21 22 23 25 26 26 27 26 26 25 25 25 26
9 8 6 6 6 6 5 5 5 6 6 6 6 6 7 7 7 8 9 10 12 13 14 15 16 17 18 19 20 21 22 23 24 25 26 26 26 26 26 26 26 27 27
8 8 7 6 6 5 5 4 5 5 5 5 6 6 7 7 8 9 9 10 12 13 15 16 17 18 19 19 20 21 22 23 24 26 26 27 26 26 26 26 27 28 29
7 6 6 6 5 5 5 5 5 5 5 5 6 7 7 8 9 10 11 11 13 14 15 16 17 18 19 20 21 22 23 24 25 26 27 26 26 26 26 27 27 29 29
7 6 5 5 5 5 5 4 5 5 5 5 6 7 7 8 9 10 11 12 13 14 15 17 17 18 19 20 22 23 24 25 26 26 26 26 26 27 28 27 28 29 30
7 6 6 5 5 5 4 4 4 4 5 5 6 7 8 9 9 10 11 12 13 14 16 17 18 18 19 21 23 24 25 26 26 27 27 27 27 28 28 28 29 29 29
6 6 6 5 4 4 4 4 4 4 5 6 6 7 8 9 9 10 11 12 14 15 17 18 19 19 20 22 23 24 26 26 27 27 28 28 28 28 29 29 30 31 31
Wind_Direction
277 275 274 275 276 275 275 274 274 275 278 280 280 281 280 283 284 287 290 291 293 294 295 297 300 298 296 297 296 297 297 299 300 300 299 298 297 295 294 293 293 293 293
277 276 275 277 275 273 276 276 275 274 276 278 282 281 280 282 283 285 288 291 294 294 295 297 299 299 297 296 297 299 301 302 301 300 299 299 298 295 294 294 294 293 293
279 280 277 279 280 276 274 272 273 274 274 277 280 280 280 283 286 288 289 292 295 297 298 298 298 298 298 297 296 299 300 301 302 300 300 299 297 295 295 295 295 296 294
279 280 277 276 276 275 271 270 271 272 272 274 277 279 282 287 289 288 289 292 295 297 297 296 297 295 295 295 297 299 299 300 302 302 299 299 298 295 295 295 296 296 296
280 280 278 276 275 273 268 269 272 273 273 274 275 278 281 286 288 287 288 291 294 295 297 296 298 299 296 296 298 300 300 300 301 302 301 298 298 298 297 296 296 295 296
282 281 279 274 271 268 266 267 270 271 273 274 273 276 280 285 286 288 289 291 293 295 294 295 296 297 297 298 299 300 301 302 303 302 300 299 299 301 300 298 298 297 297
282 281 279 272 267 262 262 264 266 268 272 273 274 278 281 283 285 288 289 291 293 295 295 295 296 296 296 297 300 301 301 301 301 302 301 300 301 300 300 300 298 296 295
281 284 283 275 267 262 262 262 265 269 273 277 279 279 280 281 283 286 288 290 292 294 295 295 296 297 298 298 300 301 301 301 300 301 301 301 300 300 301 301 300 297 295
288 287 283 278 271 270 269 266 269 270 275 279 280 280 281 284 286 286 289 290 292 295 294 295 295 296 297 299 301 302 302 301 301 300 300 300 299 300 300 300 301 300 297
292 291 285 279 277 278 276 275 275 273 276 276 276 279 280 281 287 290 290 292 294 294 294 293 294 296 298 300 302 303 304 303 301 299 299 300 300 300 301 301 302 302 299
291 287 286 289 284 281 279 278 278 279 279 278 280 280 281 284 289 293 295 296 295 295 294 295 297 298 300 301 301 303 305 305 304 302 301 303 303 301 302 302 301 301 300
291 286 287 289 285 282 280 280 281 281 280 280 283 285 281 284 287 293 296 298 298 297 297 298 299 300 302 302 303 304 306 307 306 305 305 304 304 305 305 304 302 300 300
297 292 287 289 285 281 280 282 281 280 281 281 285 288 287 288 291 294 294 297 300 302 302 300 300 302 304 305 307 306 307 307 307 307 307 306 306 307 307 306 304 302 301
301 298 290 292 291 285 282 282 283 281 282 285 289 292 292 290 293 293 292 294 299 301 301 301 300 302 305 308 309 309 309 309 311 311 311 310 309 308 308 307 306 304 302
308 302 298 294 293 291 284 281 280 281 283 289 293 294 295 294 296 295 297 302 301 300 299 303 305 307 309 308 308 310 311 311 312 314 314 314 313 312 311 309 307 305 304
308 304 301 294 292 289 281 277 275 280 285 290 294 295 296 298 301 302 301 300 301 302 307 312 313 314 314 314 313 314 313 314 315 317 317 317 317 316 313 311 310 308 306
312 309 304 299 295 292 286 279 276 279 284 290 294 296 298 299 305 305 304 304 306 309 315 318 319 319 319 319 319 319 317 318 320 321 321 320 319 318 316 314 312 310 308
317 315 310 303 298 291 286 281 280 283 284 288 294 301 305 305 308 310 309 312 314 316 318 319 320 320 321 322 322 321 320 319 320 321 321 320 320 319 318 316 315 314 313
324 320 318 313 308 300 296 290 289 291 295 299 303 304 303 307 315 320 317 319 322 322 322 323 323 324 324 324 324 323 322 323 323 323 323 323 322 321 320 318 317 316 315
327 325 322 317 318 316 314 309 312 313 311 312 316 320 317 316 321 322 324 324 326 326 327 328 327 328 327 328 328 326 326 325 325 325 325 325 325 323 321 321 320 318 316
334 334 332 329 331 331 330 327 324 320 319 321 326 327 331 331 327 324 326 329 330 331 331 331 332 332 332 332 332 331 330 330 329 328 327 327 326 325 324 323 322 320 318
340 331 328 340 347 352 356 352 343 337 338 335 334 335 333 334 332 329 330 331 331 333 333 333 332 334 335 336 335 334 333 332 332 331 330 329 329 328 326 325 323 322 320
345 343 336 339 350 356 355 352 349 345 345 338 339 338 336 335 334 333 333 333 334 335 335 335 334 335 336 337 337 336 335 335 334 333 332 332 331 330 328 327 326 324 323
347 347 339 336 342 345 343 344 349 352 354 344 340 341 340 338 337 337 337 337 337 337 337 337 337 337 337 337 338 337 336 336 336 336 335 333 331 330 329 328 328 326 325
347 351 349 344 339 340 345 347 349 353 350 344 342 342 339 337 337 338 340 341 341 341 341 340 339 339 339 338 337 337 337 337 338 337 337 335 333 331 330 330 331 330 328
345 349 351 348 348 354 354 348 344 345 342 338 340 341 341 340 339 341 341 341 341 340 341 341 340 339 339 339 338 337 338 339 339 339 338 336 336 335 334 333 332 331 330